Stations météo

réclame
Mon MeteoGroup
Cannes, France (7684): Température de l'air & dewpoint: 18.10.2018 07:00:00 - 24.10.2018 07:00:00 (CEST)Cannes, France (7684): Température de l'air 5cm: 18.10.2018 07:00:00 - 24.10.2018 07:00:00 (CEST)Cannes, France (7684): Vitesse du vent & gusts: 18.10.2018 07:00:00 - 24.10.2018 07:00:00 (CEST)Cannes, France (7684): Direction du vent: 18.10.2018 07:00:00 - 24.10.2018 07:00:00 (CEST)Cannes, France (7684): reduced air pressure: 18.10.2018 07:00:00 - 24.10.2018 07:00:00 (CEST)Cannes, France (7684): visibility: 18.10.2018 07:00:00 - 24.10.2018 07:00:00 (CEST)Cannes, France (7684): Quantités de précipitations: 18.10.2018 07:00:00 - 24.10.2018 07:00:00 (CEST)
Date & Time tt [°C] td [°C] tt 5cm [°C] ff [km/h] ff [knt] fx [km/h] fx [knt] dd ppp [hPa] vv [km] rr [mm]
24.10.2018 07:00:00 10,1 6,8 8,3 8 4 16 9 N 1015,7 43 0,0
24.10.2018 06:00:00 10,4 7,1 8,7 6 3 19 10 N 1016,2 40 0,0
24.10.2018 05:00:00 10,8 7,7 8,9 6 4 16 9 N 1016,2 37 0,0
24.10.2018 04:00:00 11,1 8,5 9,0 9 5 15 8 N 1016,7 19 0,0
24.10.2018 03:00:00 11,2 8,9 9,5 6 3 15 8 N 1017,1 27 0,0
24.10.2018 02:00:00 11,5 8,9 9,2 8 4 13 7 N 1017,7 20 0,0
24.10.2018 01:00:00 12,3 9,3 9,3 2 1 14 8 NNW 1018,2 29 0,0
24.10.2018 00:00:00 12,6 10,1 10,8 8 4 13 7 N 1018,9 20 0,0
23.10.2018 23:00:00 13,3 10,8 11,5 7 4 14 8 N 1019,2 20 0,0
23.10.2018 22:00:00 13,8 11,1 11,6 5 3 10 5 N 1019,4 20 0,0
23.10.2018 21:00:00 14,5 11,8 12,3 6 3 10 5 N 1019,6 20 0,0
23.10.2018 20:00:00 15,9 12,3 13,4 6 3 11 6 N 1020,0 17 0,0
23.10.2018 19:00:00 18,3 12,1 14,7 5 3 13 7 NW 1020,0 33 0,0
23.10.2018 18:00:00 19,9 12,2 18,1 11 6 22 12 S 1020,3 45 0,0
23.10.2018 17:00:00 21,9 11,9 24,8 11 6 22 12 SW 1020,6 48 0,0
23.10.2018 16:00:00 23,0 10,4 27,5 13 7 20 11 SSW 1020,9 51 0,0
23.10.2018 15:00:00 23,5 7,6 22,3 8 4 22 12 WSW 1021,5 60 0,0
23.10.2018 14:00:00 23,2 9,9 22,4 9 5 16 9 SW 1022,2 38 0,0
23.10.2018 13:00:00 22,1 11,2 23,8 9 5 18 10 SSE 1022,9 20 0,0
23.10.2018 12:00:00 21,6 9,8 18,3 6 3 13 7 SSE 1023,5 45 0,0
23.10.2018 11:00:00 17,9 8,7 14,4 7 4 13 7 N 1023,6 60 0,0
23.10.2018 10:00:00 14,4 7,7 10,6 9 5 16 9 N 1024,0 53 0,0
23.10.2018 09:00:00 11,0 6,9 8,4 7 4 16 8 N 1023,4 45 0,0
23.10.2018 08:00:00 9,9 6,8 8,4 8 4 15 8 N 1023,0 41 0,0
23.10.2018 07:00:00 10,2 7,1 8,2 8 5 14 8 N 1022,5 41 0,0
23.10.2018 06:00:00 10,4 7,5 8,7 7 4 14 8 N 1022,3 40 0,0
23.10.2018 05:00:00 10,8 8,0 9,0 8 4 16 9 N 1021,8 35 0,0
23.10.2018 04:00:00 11,3 9,0 9,6 7 4 13 7 N 1022,1 30 0,0
23.10.2018 03:00:00 11,6 9,7 9,1 4 2 11 6 N 1022,0 24 0,0
23.10.2018 02:00:00 12,1 10,3 9,8 6 3 12 6 N 1022,3 20 0,0
23.10.2018 01:00:00 12,4 11,0 10,2 7 4 12 6 N 1021,8 19 0,0
23.10.2018 00:00:00 12,9 11,1 11,3 6 3 16 9 N 1021,7 17 0,0
22.10.2018 23:00:00 13,9 11,8 12,7 8 5 16 8 N 1021,5 17 0,0
22.10.2018 22:00:00 14,8 12,3 11,8 7 4 12 7 N 1021,1 16 0,0
22.10.2018 21:00:00 16,1 12,5 13,7 6 3 11 6 N 1020,6 18 0,0
22.10.2018 20:00:00 16,6 12,1 12,2 5 3 9 5 N 1020,1 27 0,0
22.10.2018 19:00:00 17,5 12,2 13,7 4 2 16 9 S 1019,1 7 0,0
22.10.2018 18:00:00 19,6 11,9 19,6 11 6 19 10 S 1018,3 45 0,0
22.10.2018 17:00:00 21,8 10,6 24,8 11 6 21 12 SW 1018,0 29 0,0
22.10.2018 16:00:00 22,2 11,3 25,7 11 6 22 12 WSW 1018,0 45 0,0
22.10.2018 15:00:00 21,5 10,3 21,6 14 8 27 15 SW 1018,6 28 0,0
22.10.2018 14:00:00 21,5 10,9 21,6 16 9 30 16 SW 1019,1 20 0,0
22.10.2018 13:00:00 21,4 10,5 22,5 6 3 26 14 N 1019,7 19 0,0
22.10.2018 12:00:00 19,9 10,0 20,2 11 6 22 12 NW 1020,4 19 0,0
22.10.2018 11:00:00 19,5 10,2 19,2 11 6 23 12 NW 1020,3 42 0,0
22.10.2018 10:00:00 18,7 9,2 16,6 12 6 22 12 W 1020,3 50 0,0
22.10.2018 09:00:00 17,7 9,1 16,0 10 5 16 9 S 1019,9 45 0,0
22.10.2018 08:00:00 18,1 7,5 15,9 6 4 16 9 ESE 1019,7 47 0,0
22.10.2018 07:00:00 18,1 8,4 16,2 4 2 16 8 E 1019,7 49 0,0
22.10.2018 06:00:00 18,2 9,8 16,9 7 4 29 16 ESE 1019,3 40 0,0
22.10.2018 05:00:00 18,6 10,2 17,5 11 6 26 14 E 1019,0 47 0,0
22.10.2018 04:00:00 18,6 11,4 17,5 12 7 28 15 SE 1019,2 48 0,0
22.10.2018 03:00:00 18,8 12,3 17,2 10 6 35 19 E 1019,2 34 0,0
22.10.2018 02:00:00 18,5 12,5 17,0 14 7 46 25 SE 1018,9 18 0,0
22.10.2018 01:00:00 19,0 13,6 16,1 13 7 46 25 E 1018,4 14 0,0
22.10.2018 00:00:00 18,2 16,4 16,6 5 3 9 5 N 1017,2 10 0,0
21.10.2018 23:00:00 18,9 16,7 17,1 4 2 17 9 N 1017,4 13 0,0
21.10.2018 22:00:00 18,7 16,7 16,2 7 4 13 7 NNE 1016,6 13 0,0
21.10.2018 21:00:00 18,9 16,1 15,6 5 3 14 8 N 1015,8 14 0,0
21.10.2018 20:00:00 19,4 15,9 16,9 4 2 12 6 NNE 1014,9 16 0,0
21.10.2018 19:00:00 20,2 16,6 17,7 3 1 15 8 NNE 1014,4 8 0,0
21.10.2018 18:00:00 22,7 16,0 22,1 7 4 14 8 NE 1013,8 20 0,0
21.10.2018 17:00:00 23,3 16,6 27,7 7 4 16 9 ESE 1014,0 17 0,0
21.10.2018 16:00:00 23,1 16,6 29,1 7 4 13 7 SE 1014,3 20 0,0
21.10.2018 15:00:00 22,9 16,7 23,7 9 5 15 8 SSE 1014,9 20 0,0
21.10.2018 14:00:00 22,7 16,5 24,1 7 4 16 9 SSE 1016,1 20 0,0
21.10.2018 13:00:00 22,2 13,5 24,7 9 5 15 8 SSE 1017,6 20 0,0
21.10.2018 12:00:00 22,4 13,2 22,3 9 5 13 7 SSE 1018,3 42 0,0
21.10.2018 11:00:00 20,8 13,0 17,8 2 1 9 5 NNE 1018,8 19 0,0
21.10.2018 10:00:00 17,2 12,1 13,9 6 3 15 8 N 1019,5 20 0,0
21.10.2018 09:00:00 14,0 11,2 11,5 6 4 12 6 N 1019,7 19 0,0
21.10.2018 08:00:00 12,9 10,6 11,3 7 4 15 8 N 1019,6 27 0,0
21.10.2018 07:00:00 12,9 10,8 11,3 7 4 11 6 N 1020,0 26 0,0
21.10.2018 06:00:00 13,2 10,9 11,7 6 3 14 7 N 1020,5 27 0,0
21.10.2018 05:00:00 13,2 10,9 11,8 6 3 14 8 N 1020,7 26 0,0
21.10.2018 04:00:00 13,5 11,2 12,0 9 5 14 7 N 1021,1 25 0,0
21.10.2018 03:00:00 13,8 11,3 11,9 8 4 13 7 N 1021,5 23 0,0
21.10.2018 02:00:00 14,0 11,5 12,5 6 4 12 7 N 1021,4 23 0,0
21.10.2018 01:00:00 14,5 11,6 12,8 7 4 13 7 N 1021,9 22 0,0
21.10.2018 00:00:00 14,8 11,8 12,7 5 3 10 5 N 1022,2 20 0,0
20.10.2018 23:00:00 15,3 12,1 13,5 7 4 11 6 N 1022,2 25 0,0
20.10.2018 22:00:00 16,1 12,5 13,6 5 3 11 6 N 1021,9 24 0,0
20.10.2018 21:00:00 16,2 13,9 13,0 3 2 6 4 N 1021,9 14 0,0
20.10.2018 20:00:00 17,8 14,1 13,9 0 0 7 4 N 1021,9 19 0,0
20.10.2018 19:00:00 19,8 14,6 17,0 4 2 9 5 N 1021,6 20 0,0
20.10.2018 18:00:00 21,9 14,8 21,3 5 3 14 8 W 1021,4 30 0,0
20.10.2018 17:00:00 22,4 14,3 23,7 10 5 19 10 SSE 1021,3 42 0,0
20.10.2018 16:00:00 24,1 13,6 30,4 10 5 17 9 SSE 1021,3 32 0,0
20.10.2018 15:00:00 24,3 14,7 25,0 9 5 16 8 SSE 1021,6 20 0,0
20.10.2018 14:00:00 24,1 15,0 25,3 8 4 11 6 SSE 1022,0 60 0,0
20.10.2018 13:00:00 24,1 13,9 27,9 7 4 11 6 S 1022,6 20 0,0
20.10.2018 12:00:00 23,9 13,1 22,8 6 3 11 6 S 1022,7 18 0,0
20.10.2018 11:00:00 21,2 12,9 18,8 4 2 10 5 N 1022,6 52 0,0
20.10.2018 10:00:00 18,3 11,8 15,2 6 3 14 8 N 1022,1 39 0,0
20.10.2018 09:00:00 15,4 11,4 12,9 7 4 13 7 N 1021,6 24 0,0
20.10.2018 08:00:00 14,3 11,3 12,8 7 4 14 8 N 1020,8 31 0,0
20.10.2018 07:00:00 14,2 11,5 12,8 8 4 14 7 N 1020,3 31 0,0
20.10.2018 06:00:00 14,3 12,0 12,9 9 5 14 8 N 1020,3 28 0,0
20.10.2018 05:00:00 14,2 12,2 13,0 5 3 14 8 N 1020,1 25 0,0
20.10.2018 04:00:00 14,3 12,3 12,9 6 3 12 6 N 1020,0 23 0,0
20.10.2018 03:00:00 14,8 12,7 13,3 7 4 11 6 N 1019,9 26 0,0
20.10.2018 02:00:00 15,0 12,7 13,7 5 3 11 6 N 1019,8 20 0,0
20.10.2018 01:00:00 15,5 13,0 14,1 6 3 11 6 N 1019,6 7 0,0
20.10.2018 00:00:00 16,0 13,1 14,3 5 3 11 6 N 1019,4 29 0,0
19.10.2018 23:00:00 16,5 13,4 14,8 7 4 13 7 N 1019,2 32 0,0
19.10.2018 22:00:00 16,8 13,5 15,0 5 3 12 7 N 1019,2 19 0,0
19.10.2018 21:00:00 17,2 13,9 15,3 5 3 11 6 N 1018,9 27 0,0
19.10.2018 20:00:00 18,0 13,9 16,1 6 3 11 6 N 1018,5 15 0,0
19.10.2018 19:00:00 20,1 14,0 16,8 5 3 8 4 N 1017,8 20 0,0
19.10.2018 18:00:00 22,5 13,3 22,7 6 3 10 5 SSW 1017,3 56 0,0
19.10.2018 17:00:00 23,1 14,9 27,4 6 3 15 8 SSW 1016,7 48 0,0
19.10.2018 16:00:00 23,3 15,6 30,0 9 5 18 10 S 1016,7 33 0,0
19.10.2018 15:00:00 23,5 15,3 24,1 11 6 19 10 S 1016,6 60 0,0
19.10.2018 14:00:00 23,6 14,0 24,2 10 5 15 8 SSE 1016,9 49 0,0
19.10.2018 13:00:00 23,9 15,1 28,0 9 5 14 8 S 1017,4 18 0,0
19.10.2018 12:00:00 23,6 14,9 23,0 7 4 11 6 S 1017,4 17 0,0
19.10.2018 11:00:00 21,5 13,4 19,5 5 3 13 7 N 1017,3 30 0,0
19.10.2018 10:00:00 18,6 12,8 15,6 6 4 14 8 N 1017,2 42 0,0
19.10.2018 09:00:00 15,5 11,9 13,1 6 3 10 6 N 1016,7 37 0,0
19.10.2018 08:00:00 14,3 11,4 12,7 6 3 16 9 N 1016,1 33 0,0
19.10.2018 07:00:00 14,3 11,4 12,6 6 3 16 9 N 1015,6 49 0,0
19.10.2018 06:00:00 14,6 11,7 13,0 10 5 16 9 NNE 1015,3 53 0,0
19.10.2018 05:00:00 14,4 11,9 13,1 6 3 14 8 N 1015,3 51 0,0
19.10.2018 04:00:00 14,8 12,1 13,2 5 3 16 9 N 1015,1 55 0,0
19.10.2018 03:00:00 15,3 12,2 14,3 9 5 18 10 N 1015,1 56 0,0
19.10.2018 02:00:00 15,4 12,7 14,3 9 5 20 11 N 1015,4 40 0,0
19.10.2018 01:00:00 15,4 12,9 14,2 7 4 14 8 N 1015,2 37 0,0
19.10.2018 00:00:00 16,0 13,1 14,7 7 4 13 7 N 1015,0 33 0,0
18.10.2018 23:00:00 16,5 13,4 15,1 7 4 13 7 N 1014,6 34 0,0
18.10.2018 22:00:00 17,1 13,6 15,3 5 3 10 5 N 1014,0 20 0,0
18.10.2018 21:00:00 18,1 14,0 16,3 7 4 15 8 N 1013,5 31 0,0
18.10.2018 20:00:00 19,4 14,2 17,7 8 4 14 8 NNE 1013,2 33 0,0
18.10.2018 19:00:00 20,5 14,4 18,3 7 4 12 7 N 1013,1 16 0,0
18.10.2018 18:00:00 23,1 13,6 21,1 5 3 16 9 E 1012,6 60 0,0
18.10.2018 17:00:00 24,6 13,2 27,1 9 5 20 11 NE 1012,3 50 0,0
18.10.2018 16:00:00 24,7 13,9 27,8 8 4 21 11 NE 1012,8 48 0,0
18.10.2018 15:00:00 24,5 13,4 25,8 10 5 24 13 E 1013,2 20 0,0
18.10.2018 14:00:00 24,1 14,5 25,3 9 5 27 15 E 1013,6 52 0,0
18.10.2018 13:00:00 24,9 14,1 27,6 13 7 23 13 ESE 1013,9 45 0,0
18.10.2018 12:00:00 24,9 13,8 25,6 10 5 21 12 ESE 1013,9 57 0,0
18.10.2018 11:00:00 23,0 15,1 21,7 3 1 8 4 N 1013,9 19 0,0
18.10.2018 10:00:00 20,2 15,6 18,8 3 2 12 6 N 1013,8 20 0,0
18.10.2018 09:00:00 18,1 14,6 16,4 8 4 13 7 N 1013,6 42 0,0
18.10.2018 08:00:00 17,0 14,5 16,4 6 4 17 9 N 1013,6 31 0,0
18.10.2018 07:00:00 17,0 14,8 16,4 10 5 17 9 N 1013,5 29 0,0

tt = Température de l'air
td = dewpoint
tt 5cm = Température de l'air 5cm
ff = Vitesse du vent
fx = gusts
dd = Direction du vent
ppp = reduced air pressure
vv = visibility
rr = Quantités de précipitations

stations d'obs. à proximité